Orbital Elements at Epoch 2459200.5 (2020-Dec-17.0) TDB
Reference: JPL 22 (heliocentric ecliptic J2000)
Element | Value | Uncertainty (1-sigma) | Units |
e | .184639372770975 | 4.0325e-08 | |
a | 2.591684224902239 | 1.195e-08 | au |
q | 2.11315727519586 | 1.0385e-07 | au |
i | 4.358591938426051 | 4.5303e-06 | deg |
node | 66.71194445464018 | 6.0629e-05 | deg |
peri | 78.10581843445013 | 6.3373e-05 | deg |
M | 79.73239288783101 | 1.5793e-05 | deg |
tp | 2458862.976627276635 (2020-Jan-14.47662728) | 6.6868e-05 | TDB |
period | 1523.952935306376 4.17 | 1.054e-05 2.886e-08 | d yr |
n | .2362277677083416 | 1.6339e-09 | deg/d |
Q | 3.070211174608619 | 1.4157e-08 | au |
|
| | Orbit Determination Parameters
Additional Information
|